This is the latest recevied weather packets stored in our database for station/object W4KUS-10. If no packets are shown the sender has not sent any weather packets the latest 10 day(s).
| Time | Temp. | Humidity | Pressure | Rain* | Wind** | Luminosity | Snow |
|---|---|---|---|---|---|---|---|
| 1777141241 | 27.22° C | 61% | 1009.1 hPa | 0 mm | - | - | - |
| 1777140941 | 27.78° C | 59% | 1009.1 hPa | 0 mm | - | - | - |
| 1777140641 | 28.33° C | 56% | 1009 hPa | 0 mm | - | - | - |
| 1777140341 | 28.89° C | 56% | 1009 hPa | 0 mm | - | - | - |
| 1777140041 | 28.89° C | 58% | 1008.9 hPa | 0 mm | - | - | - |
| 1777139741 | 28.89° C | 54% | 1008.9 hPa | 0 mm | - | - | - |
| 1777139441 | 30° C | 52% | 1008.9 hPa | 0 mm | - | - | - |
| 1777139141 | 30° C | 52% | 1008.9 hPa | 0 mm | - | - | - |
| 1777138841 | 30° C | 53% | 1009 hPa | 0 mm | - | - | - |
| 1777138541 | 30° C | 52% | 1009.2 hPa | 0 mm | - | - | - |
| 1777138218 | 30° C | 50% | 1009.3 hPa | 0 mm | - | - | - |
| 1777137941 | 30° C | 51% | 1009.5 hPa | 0 mm | - | - | - |
| 1777137641 | 30° C | 50% | 1009.6 hPa | 0 mm | - | - | - |
| 1777137341 | 30° C | 49% | 1009.6 hPa | 0 mm | - | - | - |
| 1777137041 | 30° C | 50% | 1009.6 hPa | 0 mm | - | - | - |
| 1777136741 | 30° C | 49% | 1009.6 hPa | 0 mm | - | - | - |
| 1777136441 | 30.56° C | 48% | 1009.7 hPa | 0 mm | - | - | - |
| 1777136141 | 30.56° C | 50% | 1009.7 hPa | 0 mm | - | - | - |
| 1777135841 | 30° C | 49% | 1009.7 hPa | 0 mm | - | - | - |
| 1777135540 | 30° C | 49% | 1009.7 hPa | 0 mm | - | - | - |
| 1777135241 | 30° C | 48% | 1009.7 hPa | 0 mm | - | - | - |
| 1777134941 | 30° C | 50% | 1009.7 hPa | 0 mm | - | - | - |
| 1777134641 | 30° C | 49% | 1009.7 hPa | 0 mm | - | - | - |
| 1777134341 | 30° C | 47% | 1009.7 hPa | 0 mm | - | - | - |
| 1777134041 | 30° C | 44% | 1009.7 hPa | 0 mm | - | - | - |
* Rain latest hour (hover to see other rain measurements)
** Current wind speed in m/s (hover to see current wind gust speed)